Flag for Canada Weather past 2 weeks in Rothesay, New Brunswick, Canada

Now
43 °F

More clouds than sun.


Feels Like: 36 °F
Forecast: 42 / 46 °F
Wind: 14 mph from Northeast

Location: Saint John

Current Time: Jun 2, 2015 at 11:00:53 AM

Latest Report: Jun 2, 2015 at 10:00 AM


Visibility: 6 mi

Pressure: 30.32 "Hg

Humidity: 93%

Dew point: 41 °F

Location of RothesayLocation

Historic Weather in Rothesay — Graph

°F

Rothesay temperature yesterday

Maximum temperature yesterday: 48 °F (at 9:48 AM)
Minimum temperature yesterday: 43 °F (at 11:00 PM)
Average temperature yesterday: 47 °F

Past Weeks' High & Low Weather Summary

 TemperatureHumidityPressure
High75 °F (May 29, 5:00 PM)100% (May 19, 6:00 AM)30.41 "Hg (May 19, 6:00 AM)
Low32 °F (May 23, 5:00 AM)27% (May 18, 2:00 PM)29.49 "Hg (May 20, 5:00 PM)
Average50 °F82%30.06 "Hg
* Reported May 18 10:00 AM — Jun 2 10:00 AM, Rothesay, Weather by CustomWeather, © 2015

Note: Actual official high and low records may vary slightly from our data, if they occured in-between our weather recording intervals... More about our weather records

Advertising

Rothesay weather history for previous 24 hours

 ConditionsComfort  
Time TempWeatherWind HumidityBarometerVisibility
10:00 AM
Tue, Jun 2
43 °FMore clouds than sun.14 mph93%30.32 "Hg6 mi
9:00 AM43 °FLight rain. Fog.12 mph93%30.34 "Hg6 mi
8:00 AM43 °FLight rain. Fog.7 mph87%30.33 "Hg6 mi
7:00 AM43 °FLight rain. Overcast.8 mph87%30.32 "Hg15 mi
6:00 AM43 °FLight rain. Overcast.8 mph87%30.32 "Hg15 mi
5:00 AM43 °FOvercast.9 mph81%30.32 "Hg15 mi
4:53 AM43 °FOvercast.8 mph81%30.32 "Hg15 mi
4:00 AM43 °FLight rain. Overcast.7 mph87%30.34 "Hg15 mi
3:00 AM43 °FLight rain. Overcast.9 mph87%30.37 "Hg15 mi
2:00 AM45 °FLight rain. Overcast.6 mph81%30.37 "Hg15 mi
1:00 AM45 °FLight rain. Overcast.7 mph81%30.37 "Hg15 mi
12:00 AM41 °FPartly cloudy.3 mph100%30.39 "Hg15 mi
11:00 PM
Mon, Jun 1
43 °FPartly cloudy.3 mph93%30.39 "Hg15 mi
10:00 PM45 °FPartly sunny.5 mph87%30.39 "Hg15 mi
9:00 PM45 °FPartly sunny.8 mph87%30.37 "Hg15 mi
8:00 PM46 °FOvercast.8 mph87%30.38 "Hg15 mi
7:00 PM48 °FMore clouds than sun.8 mph82%30.37 "Hg15 mi
6:00 PM48 °FMostly cloudy.7 mph87%30.39 "Hg15 mi
5:00 PM48 °FCloudy.14 mph82%30.38 "Hg12 mi
4:00 PM48 °FLight rain. Cloudy.12 mph82%30.39 "Hg8 mi
3:00 PM48 °FLight rain. Fog.12 mph87%30.38 "Hg6 mi
2:00 PM48 °FLight rain. Fog.9 mph87%30.39 "Hg6 mi
1:00 PM48 °FLight rain. Fog.10 mph87%30.41 "Hg6 mi
12:00 PM48 °FLight rain. Fog.10 mph87%30.40 "Hg6 mi
11:00 AM46 °FLight rain. Overcast.7 mph93%30.39 "Hg10 mi
Weather by CustomWeather, © 2015

See weather overviewHow to use our weather pages